This is the latest recevied weather packets stored in our database for station/object AD8AK. If no packets are shown the sender has not sent any weather packets the latest 1 day(s).
| Time | Temp. | Humidity | Pressure | Rain* | Wind** | Luminosity | Snow |
|---|---|---|---|---|---|---|---|
| 1778017937 | 10° C | 94% | 1008.1 hPa | 1.78 mm | 0 m/s | - | - |
| 1778017634 | 10° C | 94% | 1008.1 hPa | 1.78 mm | 0 m/s | - | - |
| 1778017332 | 10° C | 94% | 1008 hPa | 1.78 mm | 0 m/s | - | - |
| 1778017029 | 10° C | 94% | 1008.1 hPa | 1.78 mm | 0 m/s | - | - |
| 1778016726 | 10° C | 94% | 1008.1 hPa | 1.27 mm | 0.89 m/s, 326° | - | - |
| 1778016422 | 10° C | 94% | 1008.2 hPa | 3.05 mm | 0 m/s | - | - |
| 1778016119 | 10° C | 94% | 1008 hPa | 1.78 mm | 0 m/s | - | - |
| 1778015816 | 10° C | 94% | 1008.2 hPa | 1.27 mm | 0 m/s | - | - |
| 1778015514 | 10° C | 94% | 1008 hPa | 3.05 mm | 0.45 m/s, 342° | - | - |
| 1778015210 | 10° C | 93% | 1008.2 hPa | 3.05 mm | 0.45 m/s, 325° | - | - |
| 1778014907 | 10° C | 93% | 1008 hPa | 3.05 mm | 0.45 m/s, 342° | - | - |
| 1778014604 | 10° C | 93% | 1008 hPa | 3.05 mm | 0.45 m/s, 326° | - | - |
| 1778014302 | 10° C | 93% | 1008 hPa | 3.05 mm | 0.45 m/s, 346° | - | - |
| 1778014003 | 10.56° C | 93% | 1008.2 hPa | 3.05 mm | 0 m/s | - | - |
| 1778013697 | 10.56° C | 93% | 1008 hPa | 3.05 mm | 0.89 m/s, 324° | - | - |
| 1778013393 | 10.56° C | 93% | 1007.8 hPa | 3.05 mm | 0.45 m/s, 307° | - | - |
| 1778013090 | 10° C | 93% | 1008 hPa | 3.05 mm | 0.89 m/s, 327° | - | - |
| 1778012786 | 10° C | 92% | 1008.1 hPa | 3.56 mm | 0.89 m/s, 335° | - | - |
| 1778012482 | 10.56° C | 92% | 1008.1 hPa | 1.78 mm | 1.34 m/s, 330° | - | - |
| 1778012179 | 10.56° C | 92% | 1007.9 hPa | 1.27 mm | 0.45 m/s, 331° | - | - |
| 1778011877 | 10.56° C | 92% | 1008 hPa | 1.27 mm | 0.45 m/s, 335° | - | - |
| 1778011575 | 10.56° C | 92% | 1007.9 hPa | 0 mm | 0 m/s | - | - |
| 1778011271 | 10.56° C | 92% | 1007.9 hPa | 1.78 mm | 0.89 m/s, 321° | - | - |
| 1778010967 | 10.56° C | 92% | 1007.8 hPa | 0 mm | 0 m/s | - | - |
| 1778010665 | 10.56° C | 92% | 1007.3 hPa | 1.27 mm | 0 m/s | - | - |
* Rain latest hour (hover to see other rain measurements)
** Current wind speed in m/s (hover to see current wind gust speed)